Lapse_Rate
6.9 7.0 7.2 7.2 7.0 6.8 6.9 7.0 7.1 7.0 6.9 6.7 6.7 6.6 6.6 6.6 6.5 6.4 6.4 6.3 6.5 6.6 6.8 6.9 6.8 7.2 7.1 6.5 6.6 7.1 6.7 7.3 8.8 8.9 7.8 7.6 7.3 6.8 6.6 6.5 6.2 6.1 6.2 5.4 5.9
6.9 7.0 7.1 7.2 7.0 6.9 7.0 7.0 7.1 7.0 6.8 6.8 6.8 6.6 6.6 6.4 6.3 6.4 6.2 6.3 6.5 6.6 6.4 6.4 6.2 6.7 6.8 6.8 7.1 7.0 7.8 8.3 9.0 7.7 8.3 8.1 7.3 7.1 7.1 6.8 6.3 6.0 5.7 5.6 6.0
6.9 7.0 7.1 7.1 7.0 7.0 7.0 7.0 7.0 7.0 6.8 6.9 6.8 6.6 6.4 6.4 6.4 6.1 6.1 6.4 6.5 6.7 7.2 6.0 6.4 6.8 7.8 7.6 6.3 6.9 7.9 8.5 8.5 8.2 8.6 8.0 7.5 7.7 8.1 7.6 6.8 6.1 5.6 6.2 5.7
6.9 7.0 7.0 7.0 6.9 7.0 7.1 7.1 7.0 6.9 6.8 7.0 6.8 6.6 6.4 6.2 6.3 6.2 6.3 6.5 6.5 6.6 7.4 6.1 6.6 6.2 6.4 7.3 6.3 7.6 8.4 8.0 8.0 7.8 8.2 8.2 8.0 7.6 7.6 7.4 6.9 7.0 6.8 6.5 5.6
6.9 6.9 7.0 6.9 6.9 7.0 7.0 7.0 6.9 6.9 6.8 7.1 6.8 6.8 6.5 6.2 6.1 6.3 6.3 6.2 6.2 6.5 6.6 6.3 6.5 6.5 5.9 7.2 7.1 8.6 8.8 9.0 8.1 7.8 7.9 8.0 8.0 7.9 7.6 7.3 6.8 7.0 6.8 6.4 5.4
6.7 6.8 6.8 6.8 6.9 6.8 7.0 7.0 6.9 7.0 6.8 7.1 7.0 6.7 6.4 6.2 6.1 6.2 6.4 6.4 6.4 6.4 6.4 6.7 6.9 7.1 7.4 8.0 8.2 8.2 9.1 9.1 8.9 7.7 7.9 8.3 7.3 7.9 7.7 7.2 6.7 6.9 6.6 5.9 5.6
6.4 6.6 6.7 6.8 6.8 6.9 6.9 6.9 6.9 6.9 7.0 7.1 6.9 7.0 6.9 6.8 6.3 6.3 6.5 6.5 6.5 6.4 5.6 6.5 6.3 6.4 6.4 6.9 7.9 8.2 8.5 8.7 8.4 8.5 8.2 8.2 7.7 8.0 7.6 7.4 6.8 6.5 6.4 6.2 5.9
6.0 6.2 6.4 6.6 6.7 6.7 6.8 6.8 6.8 6.6 6.8 6.5 7.4 6.9 6.9 6.9 6.9 6.7 6.8 6.7 6.6 6.4 6.4 6.3 6.4 6.9 6.7 8.0 8.1 8.3 7.9 8.1 8.5 8.9 8.3 8.2 8.3 8.1 7.8 7.6 6.9 6.7 6.5 6.4 6.2
5.7 5.7 5.9 6.1 6.3 6.5 6.5 6.5 6.5 6.4 6.4 6.5 6.7 6.7 6.7 7.1 7.1 6.8 6.8 6.7 6.5 6.8 6.7 6.7 6.9 7.2 7.4 8.0 7.5 8.5 8.4 9.1 9.2 9.1 9.2 8.7 8.6 8.4 8.1 7.7 7.2 7.0 6.7 6.4 6.3
5.7 5.6 5.6 5.6 5.7 5.9 6.1 6.3 6.2 6.1 6.1 6.2 6.4 6.5 7.0 7.2 6.8 6.8 6.8 6.5 6.5 6.7 6.8 6.9 6.9 7.1 8.4 8.0 8.7 9.1 8.3 9.5 9.5 9.0 9.3 9.4 9.3 8.6 9.0 9.0 8.1 6.5 6.9 6.6 6.4
5.6 5.7 5.7 5.5 5.4 5.5 5.6 5.7 5.7 5.9 5.7 6.1 6.4 6.5 6.8 6.7 6.4 6.4 6.4 6.4 6.4 6.6 7.0 7.4 7.6 8.5 8.0 8.4 8.8 8.6 9.3 9.6 9.5 8.6 8.7 9.2 9.4 9.2 9.5 9.2 9.1 8.2 6.3 6.8 6.8
5.5 5.6 5.7 5.6 5.5 5.4 5.4 5.4 5.0 5.2 5.6 5.9 5.8 6.2 6.3 6.3 6.2 6.4 6.4 6.3 6.5 6.8 7.3 7.6 8.2 8.7 8.1 8.5 8.4 8.7 9.0 9.5 9.4 9.4 8.9 9.0 9.1 9.4 9.2 9.6 9.3 9.2 8.7 6.8 6.9
5.7 5.6 5.6 5.7 5.6 5.5 5.5 5.7 5.8 5.7 5.5 6.0 5.9 6.0 6.1 6.0 6.2 6.5 6.2 6.1 6.6 6.9 7.3 8.2 8.9 8.9 8.7 8.4 8.6 9.0 9.6 9.6 9.5 9.1 9.3 9.7 9.3 9.4 9.2 9.6 9.2 9.1 8.8 8.6 7.0
5.7 5.8 5.7 5.6 5.6 5.7 5.5 5.6 5.7 5.8 5.5 6.5 6.3 6.1 6.0 6.1 6.2 6.4 6.5 6.3 6.5 7.0 7.3 7.8 9.2 9.3 9.3 8.4 8.4 9.5 9.6 9.2 8.9 9.2 9.5 9.6 9.3 9.3 9.2 9.2 9.6 9.5 9.5 8.8 7.9
5.5 5.7 5.8 5.7 5.5 5.3 5.5 5.7 5.9 5.7 6.7 7.0 6.6 6.7 6.4 6.4 6.6 6.5 6.7 6.2 6.6 7.1 7.2 7.8 8.8 8.5 8.3 8.1 8.8 9.5 9.6 9.5 8.8 8.3 9.3 9.4 9.7 8.9 9.4 9.8 9.6 9.6 9.2 9.1 8.8
5.6 5.7 5.8 5.8 5.8 5.8 5.7 5.7 5.7 5.8 7.6 7.1 6.7 6.3 6.4 6.5 6.5 6.8 6.5 6.5 6.7 6.8 7.0 7.3 8.0 8.7 9.0 8.7 9.1 9.3 8.1 8.3 8.4 8.9 9.4 9.3 9.6 9.0 9.5 9.3 9.4 9.6 9.7 9.4 8.8
5.6 5.7 5.8 5.8 5.9 5.9 5.9 5.9 5.8 6.8 7.8 7.7 7.2 6.9 6.8 6.9 6.8 6.8 6.9 6.8 6.7 7.0 7.1 7.4 7.6 8.0 8.1 7.9 8.1 8.1 8.2 8.5 9.4 9.7 9.7 9.3 8.9 8.9 10.0 9.7 9.3 9.1 9.5 8.5 8.4
5.6 5.6 5.8 5.8 5.9 5.8 5.8 5.4 6.2 7.8 9.4 8.0 7.5 7.4 7.4 7.5 7.3 7.2 7.2 7.1 7.1 7.3 7.6 8.2 9.0 8.9 9.1 8.5 8.4 8.2 9.2 9.6 9.3 9.6 9.8 9.1 8.7 9.2 8.7 9.4 9.4 9.4 8.6 8.5 8.2
5.7 5.7 5.8 5.9 5.8 5.8 5.7 5.6 7.1 8.2 8.5 8.0 7.7 7.9 8.1 8.1 8.2 7.5 7.4 7.6 7.7 7.7 7.5 8.0 8.2 9.3 9.7 9.5 9.4 9.2 9.2 9.1 9.3 9.6 9.7 9.4 9.6 9.3 9.6 9.7 9.7 9.5 8.2 8.1 8.1
6.0 6.0 5.7 6.2 5.8 5.7 5.4 5.8 7.3 7.8 7.3 7.1 7.7 8.7 9.0 9.6 8.6 8.1 8.3 8.1 8.0 8.3 8.6 8.5 8.4 8.7 9.2 9.7 9.6 9.1 8.8 8.8 9.6 9.5 9.3 9.7 9.6 9.6 9.0 8.7 9.8 9.7 9.5 7.9 8.1
6.2 6.0 5.6 6.0 6.0 5.7 5.3 6.3 7.2 7.6 7.2 7.2 7.7 8.3 8.4 9.4 9.7 9.4 9.6 9.6 9.6 9.4 8.8 9.2 9.5 9.0 9.5 9.6 9.7 9.7 9.3 9.1 9.2 9.1 9.7 9.7 9.7 9.2 9.4 9.2 9.0 9.0 9.6 8.8 8.5
6.2 6.0 6.0 5.9 6.0 5.8 6.0 6.7 7.4 7.7 7.4 6.9 7.2 7.6 7.7 8.2 8.9 8.7 8.8 9.7 9.5 9.6 9.7 9.7 9.6 9.6 9.6 9.7 9.7 9.7 9.7 9.7 9.8 9.7 9.6 9.5 9.2 9.5 9.5 8.4 9.9 9.8 9.3 9.0 8.7
6.1 6.0 6.2 6.0 6.0 6.6 7.0 7.1 7.5 7.8 7.9 7.4 7.6 7.6 7.8 7.9 8.1 8.0 8.1 8.9 9.6 9.3 9.4 9.0 9.6 9.7 9.7 9.7 9.6 9.7 9.7 9.7 9.7 9.7 9.7 9.8 9.7 9.6 9.4 9.3 9.6 9.2 8.9 9.0 9.0
6.3 6.6 6.4 6.4 6.5 6.6 7.0 7.6 7.8 7.7 7.4 7.6 7.6 7.8 7.8 7.7 7.9 7.9 8.1 8.5 9.5 9.1 8.7 8.6 8.8 9.2 9.6 9.6 9.5 9.5 9.5 9.6 9.5 9.7 9.7 9.7 9.7 9.6 8.5 8.9 9.1 9.1 8.3 8.1 8.8
6.3 6.8 6.5 7.1 7.0 6.9 7.3 7.8 8.0 7.9 7.8 7.5 7.5 7.5 7.7 7.8 8.0 8.1 8.4 8.6 8.9 9.3 9.1 8.9 9.0 9.3 9.2 9.5 9.4 9.7 9.7 9.0 9.7 9.5 8.8 8.6 8.0 7.8 8.0 8.5 8.3 8.8 9.0 8.9 8.9
5.7 5.8 6.2 6.7 7.1 7.2 7.7 7.7 7.9 8.1 8.1 8.0 7.4 7.5 7.9 8.3 8.3 8.2 8.5 9.0 9.1 9.3 9.7 9.7 9.5 9.6 9.6 9.6 9.6 9.2 9.4 9.7 9.3 9.4 9.0 9.0 8.4 8.0 8.2 8.3 8.6 8.1 7.4 8.1 9.1
6.7 6.3 6.6 6.6 7.2 7.5 7.8 7.9 7.9 8.1 8.3 8.1 7.7 7.7 7.7 7.7 7.1 7.1 7.5 7.9 8.5 8.8 8.9 9.3 9.4 9.5 9.4 9.6 9.6 9.3 9.6 9.6 9.3 9.0 8.7 8.2 7.9 8.2 7.5 8.1 8.5 8.3 7.3 7.1 7.0
Wind_Speed
15 15 15 15 15 15 16 16 16 16 15 16 16 15 16 17 20 6 9 3 5 14 4 14 12 12 11 11 4 13 5 5 9 5 13 9 14 11 12 9 12 2 14 23 23
16 16 16 16 16 16 16 16 17 17 16 16 16 15 15 14 10 13 2 5 11 12 11 13 11 8 7 2 5 5 4 5 10 9 14 6 15 11 10 15 14 14 22 24 23
17 17 17 17 16 16 17 17 18 18 17 16 15 15 14 14 7 6 5 6 9 12 16 18 5 12 13 12 13 7 7 4 9 9 12 8 13 2 7 11 17 15 17 21 19
18 18 18 18 17 18 18 18 19 18 18 17 16 16 13 6 3 6 7 6 10 13 15 14 4 15 9 12 13 9 12 5 12 3 1 12 7 11 14 9 16 16 18 19 20
19 19 19 19 19 19 19 19 20 19 18 16 16 14 8 7 2 12 9 8 9 13 17 13 6 18 15 11 13 10 9 5 7 5 6 3 9 8 13 12 16 16 17 19 19
19 19 20 20 20 20 21 20 21 20 18 15 15 13 6 6 7 16 12 12 13 14 11 10 8 7 13 7 4 6 3 4 8 9 6 9 10 3 13 13 16 15 17 16 17
20 20 21 22 21 22 22 23 22 21 19 15 11 6 6 10 5 12 13 13 13 14 15 7 9 13 14 11 6 9 1 5 4 9 4 4 5 6 14 14 16 15 15 16 16
20 21 21 22 23 23 24 25 24 21 18 13 7 6 7 10 7 12 13 13 14 12 15 13 12 16 16 12 7 11 9 8 10 4 4 5 5 10 12 14 16 15 14 14 16
22 23 22 22 23 25 26 26 24 16 12 12 6 7 15 4 10 12 14 13 12 11 13 11 13 16 18 10 10 12 4 10 10 3 7 3 10 16 15 14 16 15 14 14 15
23 23 24 24 23 25 31 24 7 11 7 9 10 9 14 13 11 12 13 13 8 9 12 15 14 16 12 3 8 7 19 4 7 1 4 10 9 11 15 15 16 19 17 16 15
23 24 25 24 24 23 16 4 4 5 11 15 15 14 9 4 8 10 12 12 13 14 13 15 12 11 5 17 6 8 8 12 8 5 8 13 8 4 10 14 14 18 19 18 17
24 26 27 27 27 23 8 5 7 7 10 23 21 17 5 6 11 13 13 12 14 15 14 13 16 10 10 16 7 9 10 5 10 7 9 10 15 9 13 14 12 13 19 20 19
23 23 25 28 32 9 10 15 8 9 7 16 23 20 13 10 13 14 17 16 17 15 17 19 7 6 4 9 8 12 14 12 6 13 18 19 17 19 14 11 11 13 12 19 20
24 25 24 32 6 8 9 3 6 7 6 12 21 17 19 16 17 18 19 18 16 19 15 14 14 15 7 9 10 17 6 8 11 12 13 11 13 8 8 18 13 15 16 14 19
25 25 23 13 12 5 7 5 8 6 6 13 14 2 16 23 7 19 14 14 21 17 13 17 16 13 14 12 16 16 14 14 10 14 19 19 13 1 8 13 5 2 11 14 18
24 24 24 5 6 14 12 8 7 6 7 10 10 11 14 18 20 17 19 14 16 18 19 19 18 17 9 11 14 11 11 15 17 16 15 22 7 11 8 10 4 5 4 7 1
26 22 10 10 2 9 8 7 6 9 4 11 13 13 16 16 19 21 15 19 15 15 16 18 21 19 16 14 15 13 14 12 13 12 14 2 8 14 8 2 6 6 8 7 1
30 22 12 8 10 8 6 7 8 13 10 7 2 14 14 16 15 19 21 16 20 21 17 15 15 23 20 21 16 16 18 12 18 15 17 8 10 8 12 16 8 9 8 6 4
41 5 4 7 17 7 7 10 9 14 9 4 9 9 12 13 8 15 20 20 19 20 19 17 21 18 10 5 13 16 16 16 20 20 18 19 25 13 6 8 10 13 14 11 4
6 9 10 10 12 7 8 16 18 12 2 7 11 9 14 15 13 13 14 17 21 21 20 18 18 18 20 13 11 11 12 16 13 19 19 15 19 12 6 12 7 2 10 11 6
4 5 8 10 7 7 11 17 19 20 4 8 15 16 7 15 5 10 15 11 17 16 19 20 14 16 16 16 16 13 16 14 16 13 14 15 13 5 1 6 6 10 9 11 6
7 8 8 9 8 9 13 19 20 17 5 6 14 13 13 14 9 9 16 13 11 9 10 15 17 16 22 20 20 18 17 19 13 13 13 14 15 15 17 14 11 6 6 5 1
5 7 6 8 7 11 15 20 20 18 15 13 9 14 14 14 12 13 15 20 6 5 8 12 9 13 15 15 18 13 19 18 15 18 18 15 14 10 9 4 4 2 9 6 5
5 4 6 7 11 17 16 16 17 11 11 14 15 14 13 12 13 14 16 15 8 2 6 5 15 18 16 15 15 3 17 14 18 12 16 16 19 13 20 12 14 12 7 8 2
5 7 14 5 11 15 17 16 14 14 17 9 13 17 15 14 15 17 18 18 19 12 8 11 17 18 20 23 25 23 10 20 17 15 11 17 20 15 16 14 10 11 9 9 7
6 6 12 13 12 8 10 14 16 13 12 11 12 14 15 13 12 14 16 16 14 15 17 15 16 17 20 21 22 26 23 24 10 4 17 23 19 6 11 14 16 12 10 9 7
9 9 8 10 11 11 10 11 12 11 15 2 12 7 5 9 11 14 15 16 17 15 14 14 14 12 16 18 19 16 24 20 24 12 19 13 15 19 14 7 2 10 9 11 5
Wind_Direction
357 353 347 344 339 336 330 326 322 321 321 319 320 323 318 314 304 235 255 224 186 175 206 245 221 246 231 244 69 351 322 290 113 85 111 141 101 88 123 103 61 43 147 146 147
356 352 347 343 340 336 328 324 321 320 320 315 318 321 315 317 281 246 140 103 156 183 220 218 211 208 244 233 58 54 275 268 76 78 102 68 96 138 146 129 104 89 106 130 156
353 350 345 341 339 334 327 325 322 319 317 315 319 314 310 312 271 107 173 142 199 219 249 287 326 285 252 182 126 224 232 9 81 13 98 110 108 192 123 110 123 134 140 147 163
350 347 342 340 339 332 326 324 319 316 317 316 315 304 309 255 355 104 150 174 217 232 257 268 10 0 349 276 150 203 228 179 109 87 152 125 128 93 81 71 113 143 153 158 168
348 346 342 341 336 331 324 321 314 313 312 313 308 312 295 231 79 135 147 176 212 238 239 244 173 208 219 209 155 250 212 124 119 133 344 180 114 95 109 115 116 138 156 166 174
347 346 339 336 333 328 322 319 312 309 307 309 304 314 251 279 105 153 176 181 238 250 267 265 331 316 293 166 165 266 293 128 166 139 188 89 305 176 121 130 126 145 162 173 182
344 342 337 334 331 326 322 316 311 307 303 304 304 292 267 255 188 187 210 207 221 261 289 324 326 304 318 309 207 251 347 42 275 185 175 123 155 257 131 144 141 164 172 177 186
340 337 334 331 327 324 318 311 306 300 297 291 282 266 259 187 220 185 210 218 230 250 268 295 300 298 277 281 262 250 165 209 214 173 123 228 234 197 170 159 157 176 179 183 188
337 332 330 329 326 322 316 308 298 288 268 282 264 233 273 118 212 213 209 228 223 243 258 274 280 273 278 76 336 316 326 236 117 196 186 257 203 202 198 173 170 176 180 189 192
334 330 328 327 325 323 317 295 265 298 221 237 261 268 232 218 199 206 208 235 263 247 251 247 256 254 267 164 261 244 215 261 101 164 207 209 232 180 183 184 179 177 184 189 198
332 329 325 323 322 326 330 247 213 207 228 226 191 218 147 171 125 210 201 219 248 250 255 234 251 262 200 251 15 320 315 307 133 156 281 300 313 269 191 188 193 186 179 186 196
332 327 325 322 318 318 286 248 23 338 292 226 252 252 268 160 204 217 197 219 225 245 227 246 240 262 223 260 303 299 287 295 283 146 229 262 267 236 247 206 197 195 184 183 184
330 326 322 319 316 289 239 284 345 323 264 255 215 231 207 220 243 212 191 215 244 227 253 257 276 334 296 290 253 257 259 322 10 326 286 264 261 243 221 203 216 186 204 187 179
325 325 324 322 304 314 248 249 280 312 277 223 206 218 218 211 238 249 182 221 229 258 252 263 275 256 248 264 267 279 3 326 307 297 297 308 264 13 83 260 198 201 188 194 178
327 323 321 325 314 269 12 293 334 265 272 131 180 142 206 210 201 201 220 206 243 232 242 260 250 253 271 277 279 265 313 324 310 291 281 273 272 178 207 251 189 50 148 196 179
321 318 322 232 217 257 303 294 256 234 244 161 144 196 210 208 230 260 195 215 237 248 269 274 280 286 283 283 259 289 314 293 278 268 267 263 274 277 153 173 154 300 148 119 114
319 311 293 306 243 344 302 264 229 243 111 161 176 194 202 207 213 227 196 205 222 232 246 253 252 264 259 241 272 279 270 274 275 272 275 53 95 233 333 342 141 166 116 125 214
318 307 223 246 284 261 262 234 250 259 226 69 353 174 206 221 196 213 223 222 229 239 266 257 239 225 226 232 246 252 253 261 281 281 284 134 202 241 134 251 218 138 117 56 214
315 187 225 230 222 260 236 224 233 240 346 19 231 256 226 240 232 192 222 237 241 217 240 263 266 279 282 230 235 246 243 261 270 276 277 279 288 214 159 32 128 126 141 160 148
311 282 242 140 175 215 232 245 253 307 67 322 278 272 245 203 196 246 213 223 235 256 231 240 258 269 282 290 237 249 280 279 268 265 262 277 284 305 146 207 114 236 190 136 144
250 237 111 152 186 222 228 234 254 257 210 266 273 288 274 290 222 227 236 233 216 228 237 263 241 254 264 263 256 249 222 236 255 273 290 289 266 161 357 349 322 249 143 140 158
287 263 135 167 202 226 237 241 267 284 203 229 276 289 308 313 296 271 285 299 35 326 257 265 247 264 263 255 258 256 249 262 251 247 245 261 283 283 198 237 208 160 110 127 348
273 230 159 207 235 235 238 245 258 254 244 267 248 261 275 276 282 279 277 288 2 332 2 325 290 256 259 264 265 253 253 234 256 270 277 280 275 286 157 73 178 110 130 134 166
277 248 147 206 252 277 288 244 239 251 274 284 288 282 281 272 270 270 280 288 308 238 80 307 275 275 287 284 306 207 290 294 305 277 279 273 278 334 18 84 80 100 89 109 252
245 267 4 202 213 231 259 279 286 224 230 232 265 253 262 266 265 265 262 262 271 266 229 257 267 274 280 287 290 299 216 269 260 326 1 338 28 6 4 19 13 173 120 148 161
320 343 348 301 296 293 260 248 269 271 233 218 220 259 275 273 255 277 285 285 266 269 260 230 258 260 271 282 291 287 285 289 228 264 312 301 317 36 356 8 11 27 180 121 148
11 333 302 290 272 261 249 259 242 249 277 289 264 298 264 340 348 318 307 304 298 288 285 289 290 293 285 294 291 296 288 299 316 311 342 335 360 341 302 301 325 318 324 344 191